StationID,Date,MaxTemp,MinTemp,Precipitation,Snowfall,SnowDepth
"USC00500490","2004-05-01",62.06,41.00,0.00,0.00,0.00
"USC00500490","2004-05-02",55.04,37.94,0.00,0.00,0.00
"USC00500490","2004-05-03",71.06,32.00,0.00,0.00,0.00
"USC00500490","2004-05-04",69.98,30.02,0.00,0.00,0.00
"USC00500490","2004-05-05",66.02,32.00,0.00,0.00,0.00
"USC00500490","2004-05-06",60.98,42.98,112.00,0.00,0.00
"USC00500490","2004-05-07",51.08,44.06,97.00,0.00,0.00
"USC00500490","2004-05-08",57.02,28.94,0.00,0.00,0.00
"USC00500490","2004-05-09",53.06,33.98,43.00,0.00,0.00
"USC00500490","2004-05-10",53.06,35.96,10.00,0.00,0.00
"USC00500490","2004-05-11",55.94,39.02,5.00,0.00,0.00
"USC00500490","2004-05-12",59.00,37.94,0.00,0.00,0.00
"USC00500490","2004-05-13",69.08,33.08,0.00,0.00,0.00
"USC00500490","2004-05-14",73.94,39.92,0.00,0.00,0.00
"USC00500490","2004-05-15",73.94,42.98,0.00,0.00,0.00
"USC00500490","2004-05-16",69.08,44.96,0.00,0.00,0.00
"USC00500490","2004-05-17",66.92,46.94,0.00,0.00,0.00
"USC00500490","2004-05-18",62.06,46.04,38.00,0.00,0.00
"USC00500490","2004-05-19",59.00,37.04,18.00,0.00,0.00
"USC00500490","2004-05-20",62.06,39.92,3.00,0.00,0.00
"USC00500490","2004-05-21",64.94,32.00,0.00,0.00,0.00
"USC00500490","2004-05-22",62.96,46.94,18.00,0.00,0.00
"USC00500490","2004-05-23",69.08,42.08,0.00,0.00,0.00
"USC00500490","2004-05-24",68.00,51.08,79.00,0.00,0.00
"USC00500490","2004-05-25",66.92,50.00,0.00,0.00,0.00
"USC00500490","2004-05-26",66.92,44.96,0.00,0.00,0.00
"USC00500490","2004-05-27",68.00,48.02,0.00,0.00,0.00
"USC00500490","2004-05-28",73.04,46.04,3.00,0.00,0.00
"USC00500490","2004-05-29",69.98,46.04,5.00,0.00,0.00
"USC00500490","2004-05-30",77.00,48.92,0.00,0.00,0.00
"USC00500490","2004-05-31",73.94,46.94,160.00,0.00,0.00
"USC00500490","2004-06-01",71.06,50.00,3.00,0.00,0.00
"USC00500490","2004-06-02",69.98,44.06,38.00,0.00,0.00
"USC00500490","2004-06-03",66.02,50.00,5.00,0.00,0.00
"USC00500490","2004-06-04",75.92,44.06,0.00,0.00,0.00
"USC00500490","2004-06-05",82.94,53.06,0.00,0.00,0.00
"USC00500490","2004-06-06",84.02,60.08,0.00,0.00,0.00
"USC00500490","2004-06-07",80.96,57.92,0.00,0.00,0.00
"USC00500490","2004-06-08",68.00,57.02,10.00,0.00,0.00
"USC00500490","2004-06-09",73.94,55.04,18.00,3.00,0.00
"USC00500490","2004-06-10",78.08,48.92,0.00,0.00,0.00
"USC00500490","2004-06-11",75.02,53.96,10.00,0.00,0.00
"USC00500490","2004-06-12",75.02,46.04,0.00,0.00,0.00
"USC00500490","2004-06-13",78.08,53.96,0.00,0.00,0.00
"USC00500490","2004-06-14",78.98,53.96,0.00,0.00,0.00
"USC00500490","2004-06-15",82.04,53.06,0.00,0.00,0.00
"USC00500490","2004-06-16",78.98,55.94,0.00,0.00,0.00
"USC00500490","2004-06-17",80.06,59.00,0.00,0.00,0.00
"USC00500490","2004-06-18",78.08,55.04,0.00,0.00,0.00
"USC00500490","2004-06-19",89.06,53.96,0.00,0.00,0.00
"USC00500490","2004-06-20",89.96,60.08,0.00,0.00,0.00
"USC00500490","2004-06-21",89.06,60.08,0.00,0.00,0.00
"USC00500490","2004-06-22",87.08,57.02,0.00,0.00,0.00
"USC00500490","2004-06-23",84.02,57.92,0.00,0.00,0.00
"USC00500490","2004-06-24",87.08,60.08,0.00,0.00,0.00
"USC00500490","2004-06-25",84.92,57.92,0.00,0.00,0.00
"USC00500490","2004-06-26",82.04,64.94,0.00,0.00,0.00
"USC00500490","2004-06-27",87.98,57.92,0.00,0.00,0.00
"USC00500490","2004-06-28",84.92,59.00,0.00,0.00,0.00
"USC00500490","2004-06-29",82.94,53.96,0.00,0.00,0.00
"USC00500490","2004-06-30",77.00,55.04,0.00,0.00,0.00
"USC00500490","2004-07-01",77.00,50.00,0.00,0.00,0.00
"USC00500490","2004-07-02",75.92,57.92,0.00,0.00,0.00
"USC00500490","2004-07-03",71.96,53.96,0.00,0.00,0.00
"USC00500490","2004-07-04",77.00,53.96,0.00,0.00,0.00
"USC00500490","2004-07-05",75.92,59.00,3.00,0.00,0.00
"USC00500490","2004-07-06",75.92,55.94,3.00,0.00,0.00
"USC00500490","2004-07-07",75.92,48.92,0.00,0.00,0.00
"USC00500490","2004-07-08",69.98,55.04,0.00,0.00,0.00
"USC00500490","2004-07-13",89.06,57.02,0.00,0.00,0.00
"USC00500490","2004-07-14",89.06,57.92,0.00,0.00,0.00
"USC00500490","2004-07-15",87.08,60.08,0.00,0.00,0.00
"USC00500490","2004-07-16",84.02,57.92,0.00,0.00,0.00
"USC00500490","2004-07-20",77.00,53.06,0.00,0.00,0.00
"USC00500490","2004-07-21",75.92,60.08,0.00,0.00,0.00
"USC00500490","2004-07-22",71.06,53.06,5.00,0.00,0.00
"USC00500490","2004-07-25",77.00,51.08,,0.00,0.00
"USC00500490","2004-07-26",75.92,48.02,0.00,0.00,0.00
"USC00500490","2004-07-27",78.08,50.00,0.00,0.00,0.00
"USC00500490","2004-07-28",75.92,57.02,3.00,0.00,0.00
"USC00500490","2004-07-29",69.98,55.94,10.00,0.00,0.00
"USC00500490","2004-07-30",71.06,53.96,135.00,0.00,0.00
"USC00500490","2004-07-31",71.06,46.94,0.00,0.00,0.00
"USC00500490","2004-08-01",68.00,55.94,71.00,0.00,0.00
"USC00500490","2004-08-02",71.96,44.06,0.00,0.00,0.00
"USC00500490","2004-08-03",73.94,42.98,0.00,0.00,0.00
"USC00500490","2004-08-04",80.96,50.00,0.00,0.00,0.00
"USC00500490","2004-08-05",84.02,48.02,0.00,0.00,0.00
"USC00500490","2004-08-06",84.92,48.02,0.00,0.00,0.00
"USC00500490","2004-08-07",82.04,48.02,0.00,0.00,0.00
"USC00500490","2004-08-08",84.02,60.08,0.00,0.00,0.00
"USC00500490","2004-08-09",84.02,51.08,0.00,0.00,0.00
"USC00500490","2004-08-10",82.94,51.98,0.00,0.00,0.00
"USC00500490","2004-08-11",73.94,50.00,0.00,0.00,0.00
"USC00500490","2004-08-12",77.00,50.00,0.00,0.00,0.00
"USC00500490","2004-08-13",80.06,50.00,0.00,0.00,0.00
"USC00500490","2004-08-14",77.00,55.94,5.00,0.00,0.00
"USC00500490","2004-08-15",82.04,57.02,0.00,0.00,0.00
"USC00500490","2004-08-16",84.92,53.96,0.00,0.00,0.00
"USC00500490","2004-08-17",78.08,53.96,0.00,0.00,0.00
"USC00500490","2004-08-18",82.94,50.00,0.00,0.00,0.00
"USC00500490","2004-08-19",84.92,50.00,0.00,0.00,0.00
"USC00500490","2004-08-20",82.94,55.04,0.00,0.00,0.00
"USC00500490","2004-08-21",75.02,53.06,0.00,0.00,0.00
"USC00500490","2004-08-22",82.04,44.96,0.00,0.00,0.00
"USC00500490","2004-08-23",75.92,46.94,0.00,0.00,0.00
"USC00500490","2004-08-24",68.00,51.08,0.00,0.00,0.00
"USC00500490","2004-08-25",64.94,37.04,0.00,0.00,0.00
"USC00500490","2004-08-26",59.00,44.96,3.00,0.00,0.00
"USC00500490","2004-08-27",66.02,46.04,13.00,0.00,0.00
"USC00500490","2004-08-28",60.08,35.96,0.00,0.00,0.00
"USC00500490","2004-08-29",62.06,33.08,0.00,0.00,0.00
"USC00500490","2004-08-30",57.92,33.08,0.00,0.00,0.00
"USC00500490","2004-08-31",66.02,46.04,0.00,0.00,0.00
"USC00500490","2004-09-01",57.92,37.94,10.00,0.00,0.00
"USC00500490","2004-09-02",57.92,48.92,127.00,0.00,0.00
"USC00500490","2004-09-03",53.96,35.06,0.00,0.00,0.00
"USC00500490","2004-09-04",53.06,30.02,0.00,0.00,0.00
"USC00500490","2004-09-05",53.06,26.96,0.00,0.00,0.00
"USC00500490","2004-09-06",55.04,23.00,0.00,0.00,0.00
"USC00500490","2004-09-07",62.06,23.00,0.00,0.00,0.00
"USC00500490","2004-09-08",62.06,23.00,0.00,0.00,0.00
"USC00500490","2004-09-09",62.06,24.98,0.00,0.00,0.00
"USC00500490","2004-09-10",57.02,26.06,0.00,0.00,0.00
"USC00500490","2004-09-11",53.06,24.98,0.00,0.00,0.00
"USC00500490","2004-09-12",51.08,23.00,0.00,0.00,0.00
"USC00500490","2004-09-13",46.94,30.92,18.00,0.00,0.00
"USC00500490","2004-09-14",41.00,35.96,51.00,0.00,0.00
"USC00500490","2004-09-15",42.98,28.04,0.00,0.00,0.00
"USC00500490","2004-09-16",37.94,30.92,0.00,0.00,0.00
"USC00500490","2004-09-17",37.94,26.96,0.00,0.00,0.00
"USC00500490","2004-09-18",51.08,24.98,0.00,0.00,0.00
"USC00500490","2004-09-19",51.98,23.00,0.00,0.00,0.00
"USC00500490","2004-09-20",53.96,41.00,13.00,0.00,0.00
"USC00500490","2004-09-21",44.06,35.06,23.00,0.00,0.00
"USC00500490","2004-09-22",53.06,28.94,0.00,0.00,0.00
"USC00500490","2004-09-23",48.92,33.98,23.00,0.00,0.00
"USC00500490","2004-09-24",39.92,26.06,0.00,0.00,0.00
"USC00500490","2004-09-25",42.08,26.06,0.00,0.00,0.00
"USC00500490","2004-09-26",55.94,28.94,18.00,0.00,0.00
"USC00500490","2004-09-27",35.06,28.04,10.00,20.00,25.00
"USC00500490","2004-09-28",35.06,19.94,3.00,8.00,0.00
"USC00500490","2004-09-29",37.94,14.00,0.00,0.00,0.00
"USC00500490","2004-09-30",39.02,33.08,58.00,0.00,0.00
"USC00500490","2004-10-01",33.98,30.02,3.00,0.00,0.00
"USC00500490","2004-10-02",37.04,23.00,0.00,0.00,0.00
"USC00500490","2004-10-03",53.96,28.94,3.00,0.00,0.00
"USC00500490","2004-10-04",59.00,30.02,0.00,0.00,0.00
"USC00500490","2004-10-05",53.06,24.08,0.00,0.00,0.00
"USC00500490","2004-10-06",41.00,28.04,0.00,0.00,0.00
"USC00500490","2004-10-07",39.02,35.06,0.00,0.00,0.00
"USC00500490","2004-10-08",46.94,32.00,0.00,0.00,0.00
"USC00500490","2004-10-09",48.02,24.98,0.00,0.00,0.00
"USC00500490","2004-10-10",39.92,28.94,0.00,0.00,0.00
"USC00500490","2004-10-11",48.02,26.96,0.00,0.00,0.00
"USC00500490","2004-10-12",48.92,26.06,0.00,0.00,0.00
"USC00500490","2004-10-13",37.94,26.06,0.00,0.00,0.00
"USC00500490","2004-10-14",33.98,26.06,8.00,13.00,0.00
"USC00500490","2004-10-15",39.92,28.04,0.00,0.00,0.00
"USC00500490","2004-10-16",33.08,26.96,0.00,0.00,0.00
"USC00500490","2004-10-17",42.08,28.04,0.00,0.00,0.00
"USC00500490","2004-10-18",37.04,12.02,0.00,0.00,0.00
"USC00500490","2004-10-19",33.08,19.94,81.00,84.00,76.00
"USC00500490","2004-10-20",37.94,24.98,0.00,0.00,76.00
"USC00500490","2004-10-21",30.92,26.06,30.00,43.00,127.00
"USC00500490","2004-10-22",33.08,24.98,3.00,10.00,127.00
"USC00500490","2004-10-23",32.00,26.06,13.00,23.00,152.00
"USC00500490","2004-10-24",28.94,12.92,0.00,0.00,152.00
"USC00500490","2004-10-25",28.04,23.00,10.00,23.00,178.00
"USC00500490","2004-10-26",33.08,21.92,25.00,51.00,203.00
"USC00500490","2004-10-27",37.04,26.96,38.00,20.00,178.00
"USC00500490","2004-10-28",30.02,12.92,0.00,0.00,178.00
"USC00500490","2004-10-29",21.92,17.96,0.00,0.00,178.00
"USC00500490","2004-10-30",21.02,8.06,,,178.00
"USC00500490","2004-10-31",15.98,3.92,,,229.00
"USC00500490","2004-12-01",32.00,15.08,25.00,38.00,356.00
"USC00500490","2004-12-02",24.08,12.02,13.00,20.00,356.00
"USC00500490","2004-12-03",12.02,3.02,25.00,48.00,381.00
"USC00500490","2004-12-04",3.02,-16.06,0.00,8.00,381.00
"USC00500490","2004-12-05",-16.06,-25.06,0.00,0.00,381.00
"USC00500490","2004-12-06",-7.96,-25.96,0.00,0.00,381.00
"USC00500490","2004-12-07",1.94,-9.04,0.00,0.00,381.00
"USC00500490","2004-12-08",-7.06,-13.00,0.00,0.00,381.00
"USC00500490","2004-12-09",-9.04,-16.06,0.00,0.00,381.00
"USC00500490","2004-12-10",-9.04,-18.04,0.00,0.00,381.00
"USC00500490","2004-12-11",-13.00,-18.04,0.00,0.00,381.00
"USC00500490","2004-12-12",-2.02,-14.08,0.00,0.00,356.00
"USC00500490","2004-12-13",-0.94,-11.02,0.00,0.00,356.00
"USC00500490","2004-12-14",3.92,-2.92,5.00,20.00,381.00
"USC00500490","2004-12-15",14.00,-7.96,0.00,0.00,381.00
"USC00500490","2004-12-16",15.08,-2.02,0.00,0.00,381.00
"USC00500490","2004-12-17",12.92,-0.04,33.00,53.00,432.00
"USC00500490","2004-12-18",15.08,-0.94,3.00,3.00,406.00
"USC00500490","2004-12-19",12.02,6.08,25.00,38.00,457.00
"USC00500490","2004-12-20",8.06,-2.02,15.00,38.00,483.00
"USC00500490","2004-12-21",-0.04,-16.96,0.00,0.00,457.00
"USC00500490","2004-12-22",24.08,-7.96,0.00,0.00,432.00
"USC00500490","2004-12-23",26.06,-7.06,5.00,10.00,432.00
"USC00500490","2004-12-24",-7.06,-34.96,0.00,0.00,432.00
"USC00500490","2004-12-25",-13.00,-36.04,0.00,0.00,432.00
"USC00500490","2004-12-26",6.98,-13.00,41.00,61.00,483.00
"USC00500490","2004-12-27",8.96,-11.02,0.00,0.00,483.00
"USC00500490","2004-12-28",3.92,-13.00,0.00,0.00,483.00
"USC00500490","2004-12-29",-13.00,-22.00,0.00,0.00,457.00
"USC00500490","2004-12-30",-2.92,-22.00,0.00,0.00,457.00
"USC00500490","2004-12-31",5.00,-7.96,0.00,0.00,457.00
"USC00500490","2005-01-01",5.00,-7.96,0.00,0.00,457.00
"USC00500490","2005-01-02",12.02,-2.92,8.00,18.00,457.00
"USC00500490","2005-01-03",26.06,3.92,8.00,8.00,457.00
"USC00500490","2005-01-04",26.96,23.00,127.00,102.00,559.00
"USC00500490","2005-01-05",28.94,21.02,56.00,56.00,610.00
"USC00500490","2005-01-06",32.00,26.06,36.00,53.00,610.00
"USC00500490","2005-01-07",28.94,21.02,0.00,0.00,610.00
"USC00500490","2005-01-08",24.08,8.96,0.00,0.00,584.00
"USC00500490","2005-01-09",-9.04,-36.04,0.00,0.00,584.00
"USC00500490","2005-01-10",-9.04,-36.04,0.00,0.00,584.00
"USC00500490","2005-01-11",-36.04,-43.96,0.00,0.00,584.00
"USC00500490","2005-01-12",-41.08,-47.02,0.00,0.00,559.00
"USC00500490","2005-01-13",-29.02,-47.02,0.00,0.00,559.00
"USC00500490","2005-01-14",-4.00,-29.92,36.00,43.00,584.00
"USC00500490","2005-01-15",-0.94,-22.00,41.00,91.00,686.00
"USC00500490","2005-01-16",-22.00,-34.96,0.00,0.00,686.00
"USC00500490","2005-01-17",-22.00,-36.94,0.00,0.00,686.00
"USC00500490","2005-01-18",-18.94,-36.94,0.00,0.00,660.00
"USC00500490","2005-01-19",-18.94,-36.94,0.00,0.00,660.00
"USC00500490","2005-01-20",-13.00,-32.08,0.00,0.00,635.00
"USC00500490","2005-01-21",-4.00,-13.00,0.00,0.00,635.00
"USC00500490","2005-01-22",10.94,-5.08,0.00,0.00,610.00
"USC00500490","2005-01-23",8.06,-5.08,0.00,0.00,610.00
"USC00500490","2005-01-24",8.06,-0.04,0.00,0.00,610.00
"USC00500490","2005-01-25",1.94,-7.96,0.00,0.00,610.00
"USC00500490","2005-01-26",3.02,-14.08,0.00,3.00,610.00
"USC00500490","2005-01-27",-4.00,-22.00,0.00,0.00,610.00
"USC00500490","2005-01-28",-7.96,-27.04,0.00,0.00,610.00
"USC00500490","2005-01-29",-5.08,-27.04,0.00,0.00,610.00
"USC00500490","2005-01-30",-7.06,-27.94,0.00,0.00,610.00
"USC00500490","2005-01-31",-16.96,-34.06,0.00,0.00,610.00
"USC00500490","2005-02-01",-25.96,-38.02,0.00,0.00,610.00
"USC00500490","2005-02-02",-25.96,-45.04,0.00,0.00,610.00
"USC00500490","2005-02-03",-23.08,-43.06,0.00,0.00,610.00
"USC00500490","2005-02-04",-11.92,-40.00,0.00,0.00,610.00
"USC00500490","2005-02-05",-11.92,-38.02,0.00,0.00,610.00
"USC00500490","2005-02-06",-0.04,-29.92,0.00,0.00,610.00
"USC00500490","2005-02-07",6.98,-5.98,0.00,0.00,610.00
"USC00500490","2005-02-08",19.94,-2.92,0.00,3.00,610.00
"USC00500490","2005-02-09",17.06,-0.04,0.00,5.00,610.00
"USC00500490","2005-02-10",12.02,-4.00,23.00,30.00,610.00
"USC00500490","2005-02-11",-4.00,-16.96,0.00,5.00,610.00
"USC00500490","2005-02-12",-4.00,-23.98,0.00,3.00,610.00
"USC00500490","2005-02-13",6.98,-27.94,0.00,0.00,610.00
"USC00500490","2005-02-14",28.04,-5.98,0.00,0.00,610.00
"USC00500490","2005-02-15",37.94,12.92,0.00,0.00,610.00
"USC00500490","2005-02-16",19.94,1.04,0.00,3.00,610.00
"USC00500490","2005-02-17",26.96,-2.02,0.00,0.00,610.00
"USC00500490","2005-02-18",19.94,-5.98,0.00,0.00,610.00
"USC00500490","2005-02-19",28.04,6.08,15.00,18.00,610.00
"USC00500490","2005-02-20",21.92,3.02,0.00,0.00,610.00
"USC00500490","2005-02-21",21.02,-2.02,0.00,3.00,610.00
"USC00500490","2005-02-22",23.00,8.06,0.00,3.00,610.00
"USC00500490","2005-02-23",23.00,8.06,0.00,0.00,610.00
"USC00500490","2005-02-24",28.94,-4.00,0.00,0.00,610.00
"USC00500490","2005-02-25",26.06,-5.08,0.00,0.00,610.00
"USC00500490","2005-02-26",17.06,-7.96,0.00,0.00,610.00
"USC00500490","2005-02-27",15.08,8.06,10.00,30.00,635.00
"USC00500490","2005-02-28",10.94,3.92,0.00,5.00,635.00
"USC00500490","2005-03-01",19.04,10.94,20.00,30.00,660.00
"USC00500490","2005-03-02",15.98,-5.98,0.00,0.00,660.00
"USC00500490","2005-03-03",17.06,8.06,0.00,0.00,635.00
"USC00500490","2005-03-04",21.02,3.02,0.00,0.00,635.00
"USC00500490","2005-03-05",17.06,-7.96,0.00,0.00,635.00
"USC00500490","2005-03-06",44.06,-5.08,0.00,0.00,635.00
"USC00500490","2005-03-07",46.04,14.00,0.00,0.00,635.00
"USC00500490","2005-03-08",37.04,6.08,0.00,0.00,635.00
"USC00500490","2005-03-09",37.94,10.04,0.00,0.00,610.00
"USC00500490","2005-03-10",46.04,12.02,0.00,0.00,610.00
"USC00500490","2005-03-11",48.92,21.02,0.00,0.00,610.00
"USC00500490","2005-03-12",37.04,19.04,0.00,0.00,610.00
"USC00500490","2005-03-13",39.02,19.04,0.00,0.00,610.00
"USC00500490","2005-03-14",37.04,26.06,0.00,3.00,610.00
"USC00500490","2005-03-15",42.08,15.08,0.00,0.00,610.00
"USC00500490","2005-03-16",33.08,12.02,8.00,13.00,610.00
"USC00500490","2005-03-17",37.04,21.92,0.00,0.00,610.00
"USC00500490","2005-03-18",39.92,5.00,0.00,0.00,610.00
"USC00500490","2005-03-19",35.06,19.94,0.00,0.00,610.00
"USC00500490","2005-03-20",24.08,8.06,0.00,0.00,584.00
"USC00500490","2005-03-21",17.96,6.98,,0.00,584.00
"USC00500490","2005-03-22",32.00,14.00,0.00,0.00,584.00
"USC00500490","2005-03-23",42.08,14.00,0.00,0.00,584.00
"USC00500490","2005-03-24",42.08,3.02,0.00,0.00,559.00
"USC00500490","2005-03-25",46.04,19.04,0.00,0.00,559.00
"USC00500490","2005-03-26",35.96,17.96,0.00,0.00,533.00
"USC00500490","2005-03-27",28.04,21.02,10.00,18.00,559.00
"USC00500490","2005-03-28",33.08,17.06,,0.00,559.00
"USC00500490","2005-03-29",24.98,17.06,,,610.00
"USC00500490","2005-03-30",35.96,-4.00,0.00,0.00,610.00
"USC00500490","2005-03-31",35.06,15.08,0.00,0.00,584.00
"USC00500490","2005-04-01",28.94,17.06,0.00,0.00,584.00
"USC00500490","2005-04-02",28.94,6.98,0.00,0.00,584.00
"USC00500490","2005-04-03",26.06,15.98,8.00,8.00,584.00
"USC00500490","2005-04-04",30.92,12.92,0.00,3.00,584.00
"USC00500490","2005-04-05",42.08,1.94,0.00,0.00,584.00
"USC00500490","2005-04-06",59.00,17.96,0.00,0.00,533.00
"USC00500490","2005-04-07",50.00,17.06,0.00,0.00,508.00
"USC00500490","2005-04-08",51.08,15.98,0.00,0.00,483.00
"USC00500490","2005-04-09",48.92,19.04,0.00,0.00,406.00
"USC00500490","2005-04-10",51.08,19.94,0.00,0.00,356.00
"USC00500490","2005-04-11",44.96,21.02,0.00,0.00,330.00
"USC00500490","2005-04-12",42.08,15.98,0.00,0.00,305.00
"USC00500490","2005-04-13",41.00,15.98,0.00,0.00,279.00
"USC00500490","2005-04-14",42.98,15.98,0.00,0.00,229.00
"USC00500490","2005-04-15",42.08,17.06,0.00,0.00,178.00
"USC00500490","2005-04-16",42.08,19.04,0.00,0.00,152.00
"USC00500490","2005-04-17",39.92,17.96,8.00,10.00,178.00
"USC00500490","2005-04-18",19.04,12.92,20.00,69.00,254.00
"USC00500490","2005-04-19",28.04,5.00,0.00,3.00,229.00
"USC00500490","2005-04-20",46.94,12.92,0.00,0.00,127.00
"USC00500490","2005-04-21",53.06,19.94,0.00,0.00,51.00
"USC00500490","2005-04-22",57.92,42.08,0.00,0.00,0.00
"USC00500490","2005-04-23",59.00,28.04,0.00,0.00,0.00
"USC00500490","2005-04-24",55.04,35.06,13.00,0.00,0.00
"USC00500490","2005-04-25",64.94,33.08,0.00,0.00,0.00
"USC00500490","2005-04-26",66.92,32.00,0.00,0.00,0.00
"USC00500490","2005-04-27",73.04,30.02,0.00,0.00,0.00
"USC00500490","2005-04-28",68.00,32.00,0.00,0.00,0.00
"USC00500490","2005-04-29",73.04,37.04,0.00,0.00,0.00
"USC00500490","2005-04-30",75.02,35.96,0.00,0.00,0.00
"USC00500490","2005-05-01",71.06,48.92,0.00,0.00,0.00
"USC00500490","2005-05-02",64.04,32.00,0.00,0.00,0.00
"USC00500490","2005-05-03",60.08,42.08,10.00,0.00,0.00
"USC00500490","2005-05-04",60.98,37.94,0.00,0.00,0.00
"USC00500490","2005-05-05",62.06,30.92,0.00,0.00,0.00
"USC00500490","2005-05-06",66.02,32.00,0.00,0.00,0.00
"USC00500490","2005-05-07",71.96,33.98,0.00,0.00,0.00
"USC00500490","2005-05-08",73.94,42.08,0.00,0.00,0.00
"USC00500490","2005-05-09",73.04,46.04,0.00,0.00,0.00
"USC00500490","2005-05-10",77.00,41.00,0.00,0.00,0.00
"USC00500490","2005-05-11",78.08,44.06,0.00,0.00,0.00
"USC00500490","2005-05-12",77.00,42.98,0.00,0.00,0.00
"USC00500490","2005-05-13",73.04,53.06,3.00,0.00,0.00
"USC00500490","2005-05-14",75.92,50.00,0.00,0.00,0.00
"USC00500490","2005-05-15",69.98,48.92,74.00,0.00,0.00
"USC00500490","2005-05-16",64.04,37.94,41.00,0.00,0.00
"USC00500490","2005-05-17",64.04,37.94,81.00,0.00,0.00
"USC00500490","2005-05-18",64.04,44.96,119.00,0.00,0.00
"USC00500490","2005-05-19",71.96,42.08,0.00,0.00,0.00
"USC00500490","2005-05-20",69.08,46.04,3.00,0.00,0.00
"USC00500490","2005-05-21",62.96,44.06,15.00,0.00,0.00
"USC00500490","2005-05-22",62.06,42.08,0.00,0.00,0.00
"USC00500490","2005-05-23",66.02,39.02,0.00,0.00,0.00
"USC00500490","2005-05-24",71.06,39.02,0.00,0.00,0.00
"USC00500490","2005-05-25",71.06,44.06,0.00,0.00,0.00
"USC00500490","2005-05-26",69.98,44.96,0.00,0.00,0.00
"USC00500490","2005-05-27",75.02,46.04,0.00,0.00,0.00
"USC00500490","2005-05-28",71.96,50.00,10.00,0.00,0.00
"USC00500490","2005-05-29",75.92,46.94,0.00,0.00,0.00
"USC00500490","2005-05-30",73.04,46.94,0.00,0.00,0.00
"USC00500490","2005-05-31",69.98,51.98,23.00,0.00,0.00
"USC00500490","2005-06-01",57.92,48.02,66.00,0.00,0.00
"USC00500490","2005-06-02",62.96,44.06,25.00,0.00,0.00
"USC00500490","2005-06-03",60.98,46.94,33.00,0.00,0.00
"USC00500490","2005-06-04",62.96,46.04,41.00,0.00,0.00
"USC00500490","2005-06-05",66.92,46.94,8.00,0.00,0.00
"USC00500490","2005-06-06",71.06,42.08,,,
"USC00500490","2005-06-07",75.02,42.98,,,
"USC00500490","2005-06-08",73.94,48.02,,,
"USC00500490","2005-06-09",78.98,51.98,,,
"USC00500490","2005-06-10",80.06,57.02,,,
"USC00500490","2005-06-11",80.06,55.04,,,
"USC00500490","2005-06-12",75.02,53.96,,,
"USC00500490","2005-06-13",77.00,57.92,,,
"USC00500490","2005-06-14",82.04,55.94,,,
"USC00500490","2005-06-15",80.96,53.06,,,
"USC00500490","2005-06-16",80.96,55.94,,,
"USC00500490","2005-06-17",78.98,53.96,,,
"USC00500490","2005-06-18",75.02,55.94,,,
"USC00500490","2005-06-19",62.96,50.00,,,
"USC00500490","2005-06-20",60.08,48.92,,,
"USC00500490","2005-06-21",69.08,46.94,,,
"USC00500490","2005-06-22",69.08,50.00,,,
"USC00500490","2005-06-23",69.98,42.98,,0.00,0.00
"USC00500490","2005-06-24",69.08,46.04,0.00,0.00,0.00
"USC00500490","2005-06-25",68.00,51.08,8.00,0.00,0.00
"USC00500490","2005-06-26",77.00,53.06,8.00,0.00,0.00
"USC00500490","2005-06-27",75.92,51.08,0.00,0.00,0.00
"USC00500490","2005-06-28",82.04,46.94,0.00,0.00,0.00
"USC00500490","2005-06-29",82.04,50.00,0.00,0.00,0.00
"USC00500490","2005-06-30",80.96,50.00,0.00,0.00,0.00
"USC00500490","2005-07-01",73.04,57.92,76.00,0.00,0.00
"USC00500490","2005-07-02",69.08,55.94,58.00,0.00,0.00
"USC00500490","2005-07-03",73.94,55.04,3.00,0.00,0.00
"USC00500490","2005-07-04",66.92,55.04,46.00,0.00,0.00
"USC00500490","2005-07-05",71.06,53.06,28.00,0.00,0.00
"USC00500490","2005-07-06",73.94,48.02,28.00,0.00,0.00
"USC00500490","2005-07-07",71.96,53.96,104.00,0.00,0.00
"USC00500490","2005-07-08",71.06,48.92,66.00,0.00,0.00
"USC00500490","2005-07-09",75.02,53.96,61.00,0.00,0.00
"USC00500490","2005-07-10",75.02,55.04,23.00,0.00,0.00
"USC00500490","2005-07-11",75.02,53.96,41.00,0.00,0.00
"USC00500490","2005-07-12",73.04,53.06,8.00,0.00,0.00
"USC00500490","2005-07-13",71.06,53.96,18.00,0.00,0.00
"USC00500490","2005-07-14",75.92,46.94,0.00,0.00,0.00
"USC00500490","2005-07-15",80.06,50.00,0.00,0.00,0.00
"USC00500490","2005-07-16",78.98,53.06,10.00,0.00,0.00
"USC00500490","2005-07-17",71.06,51.08,0.00,0.00,0.00
"USC00500490","2005-07-18",71.06,57.02,155.00,0.00,0.00
"USC00500490","2005-07-19",75.02,53.96,15.00,0.00,0.00
"USC00500490","2005-07-20",71.96,51.98,0.00,0.00,0.00
"USC00500490","2005-07-21",71.96,42.98,0.00,0.00,0.00
"USC00500490","2005-07-22",75.92,46.94,0.00,0.00,0.00
"USC00500490","2005-07-23",77.00,46.94,0.00,0.00,0.00
"USC00500490","2005-07-24",77.00,51.08,48.00,0.00,0.00
"USC00500490","2005-07-25",78.08,44.96,0.00,0.00,0.00
"USC00500490","2005-07-26",78.08,48.92,0.00,0.00,0.00
"USC00500490","2005-07-27",80.96,48.92,0.00,0.00,0.00
"USC00500490","2005-07-28",78.98,51.08,0.00,0.00,0.00
"USC00500490","2005-07-29",73.04,51.98,0.00,0.00,0.00
"USC00500490","2005-07-30",64.04,51.08,10.00,0.00,0.00
"USC00500490","2005-07-31",62.06,39.92,0.00,0.00,0.00
"USC00500490","2005-08-01",62.06,39.02,0.00,0.00,0.00
"USC00500490","2005-08-02",66.02,44.96,0.00,0.00,0.00
"USC00500490","2005-08-03",73.04,39.92,0.00,0.00,0.00
"USC00500490","2005-08-04",71.96,53.96,3.00,0.00,0.00
"USC00500490","2005-08-05",71.96,53.96,0.00,0.00,0.00
"USC00500490","2005-08-06",64.94,53.96,18.00,0.00,0.00
"USC00500490","2005-08-07",66.02,48.92,0.00,0.00,0.00
"USC00500490","2005-08-08",69.98,53.96,0.00,0.00,0.00
"USC00500490","2005-08-09",80.06,44.96,0.00,0.00,0.00
"USC00500490","2005-08-10",84.92,48.02,0.00,0.00,0.00
"USC00500490","2005-08-11",80.96,51.08,0.00,0.00,0.00
"USC00500490","2005-08-12",78.98,46.04,0.00,0.00,0.00
"USC00500490","2005-08-13",84.92,48.02,0.00,0.00,0.00